Buger, Spain

4:15 AM CEST on September 26, 2017 (GMT +0200)
Buger

Weather History for 08306 - March, 2013

Change the Weather History Date:

Wednesday, March 13, 2013

  Actual Average Record
Temperature  
Mean Temperature 52 °F -  
Max Temperature 60 °F 64 °F - ()
Min Temperature 44 °F 43 °F - ()
Degree Days  
Heating Degree Days 13    
Growing Degree Days 2 (Base 50)    
Moisture  
Dew Point 44 °F    
Average Humidity 83    
Maximum Humidity 100    
Minimum Humidity 49    
Precipitation  
Precipitation 0.03 in 0.05 in - ()
Sea Level Pressure  
Sea Level Pressure 29.46 in    
Wind  
Wind Speed 6 mph ()    
Max Wind Speed 31 mph    
Max Gust Speed 43 mph    
Visibility 6.4 miles    
Events Rain    
T = Trace of Precipitation, MM = Missing Value Source: Averaged Metar Reports

Daily Weather History Graph

Daily Weather History Graph

Search for Another Location

Airport or City:

Trip Planner

Search our weather history database for the weather conditions in past years. The results will help you decide how hot, cold, wet, or windy it might be!

Date:

Astronomy

Mar. 13, 2013 Rise Set
Actual Time 7:03 AM CET 6:53 PM CET
Civil Twilight 6:36 AM CET 7:20 PM CET
Nautical Twilight 6:05 AM CET 7:52 PM CET
Astronomical Twilight 5:34 AM CET 8:23 PM CET
Moon 7:35 AM CET (3/13) 8:54 PM CET (3/13)
Length of Visible Light 12h 43m
Length of Day
11h 50m
Waxing Crescent, 3% of the Moon is Illuminated
Mar 13
Waxing Crescent
Mar 19
First Quarter
Mar 27
Full
Apr 3
Last Quarter
Apr 10
New

Hourly Weather History & Observations

Time (CET) Temp. Windchill Dew Point Humidity Pressure Visibility Wind Dir Wind Speed Gust Speed Precip Events Conditions
12:00 AM 50.0 °F - 46.4 °F 87% 29.53 in 6.2 mi Calm Calm - N/A   Scattered Clouds
12:30 AM 50.0 °F - 46.4 °F 87% 29.53 in 6.2 mi Calm Calm - N/A   Partly Cloudy
1:00 AM 48 °F - 43 °F 76% 29.52 in 10 mi Calm Calm - -   Partly Cloudy
1:00 AM 50.0 °F - 46.4 °F 87% 29.50 in 6.2 mi Variable 1.2 mph - N/A   Scattered Clouds
1:30 AM 51.8 °F - 48.2 °F 88% 29.50 in 6.2 mi SSW 3.5 mph 16.1 mph N/A   Scattered Clouds
2:00 AM 51.8 °F - 48.2 °F 88% 29.47 in 6.2 mi Calm Calm - N/A   Scattered Clouds
2:30 AM 51.8 °F - 48.2 °F 88% 29.47 in 6.2 mi Calm Calm - N/A   Partly Cloudy
3:00 AM 51.8 °F - 48.2 °F 88% 29.47 in 6.2 mi Variable 1.2 mph - N/A   Scattered Clouds
3:30 AM 50.0 °F - 48.2 °F 94% 29.44 in 6.2 mi Variable 2.3 mph - N/A   Scattered Clouds
4:00 AM 51.8 °F - 48.2 °F 88% 29.44 in 6.2 mi Variable 1.2 mph - N/A   Scattered Clouds
4:30 AM 50.0 °F - 48.2 °F 94% 29.42 in 6.2 mi ENE 2.3 mph - N/A   Scattered Clouds
5:00 AM 48.2 °F - 46.4 °F 93% 29.42 in 6.2 mi East 1.2 mph - N/A   Scattered Clouds
5:30 AM 48.2 °F - 46.4 °F 93% 29.42 in 6.2 mi Variable 1.2 mph - N/A   Scattered Clouds
6:00 AM 48.2 °F - 46.4 °F 93% 29.42 in 6.2 mi Calm Calm - N/A   Partly Cloudy
6:30 AM 46.4 °F - 44.6 °F 93% 29.42 in 6.2 mi Calm Calm - N/A   Partly Cloudy
7:00 AM 45 °F - 42 °F 87% 29.42 in 15 mi Calm Calm - -   Partly Cloudy
7:00 AM 46.4 °F - 44.6 °F 93% 29.42 in 6.2 mi Calm Calm - N/A   Partly Cloudy
7:30 AM 46.4 °F - 46.4 °F 100% 29.39 in 6.2 mi NE 2.3 mph - N/A   Partly Cloudy
8:00 AM 48.2 °F - 46.4 °F 93% 29.39 in 6.2 mi East 3.5 mph - N/A   Scattered Clouds
8:30 AM 51.8 °F - 50.0 °F 94% 29.39 in 6.2 mi Variable 1.2 mph - N/A   Scattered Clouds
9:00 AM 53.6 °F - 51.8 °F 94% 29.39 in 6.2 mi NW 1.2 mph - N/A   Partly Cloudy
10:00 AM 59.0 °F - 48.2 °F 67% 29.39 in 6.2 mi WSW 5.8 mph - N/A   Partly Cloudy
10:30 AM 59.0 °F - 50.0 °F 72% 29.39 in 6.2 mi SW 13.8 mph - N/A   Partly Cloudy
11:00 AM 59.0 °F - 48.2 °F 67% 29.39 in 6.2 mi WSW 17.3 mph - N/A Rain Light Rain
11:30 AM 55.4 °F - 48.2 °F 77% 29.39 in 6.2 mi West 11.5 mph - N/A Rain Light Rain
12:00 PM 57.2 °F - 46.4 °F 67% 29.39 in 6.2 mi WSW 23.0 mph 34.5 mph N/A   Partly Cloudy
12:30 PM 57.2 °F - 44.6 °F 63% 29.39 in 6.2 mi WSW 29.9 mph 41.4 mph N/A   Partly Cloudy
1:00 PM 52 °F - 39 °F 49% 29.39 in 11 mi WNW 25.3 mph - -   Mostly Cloudy
1:00 PM 57.2 °F - 42.8 °F 59% 29.39 in 6.2 mi West 24.2 mph - N/A   Partly Cloudy
1:30 PM 48.2 °F - 41.0 °F 76% 29.39 in 6.2 mi WNW 31.1 mph 42.6 mph N/A Rain Light Rain
2:00 PM 46.4 °F 37.7 °F 39.2 °F 76% 29.39 in 6.2 mi NW 26.5 mph 40.3 mph N/A Rain Light Rain
2:30 PM 46.4 °F 39.0 °F 39.2 °F 76% 29.39 in 6.2 mi NNW 19.6 mph 33.4 mph N/A   Partly Cloudy
3:00 PM 48.2 °F - 41.0 °F 76% 29.39 in 6.2 mi NW 16.1 mph - N/A   Partly Cloudy
3:30 PM 46.4 °F 39.0 °F 39.2 °F 76% 29.39 in 6.2 mi NW 19.6 mph - N/A   Scattered Clouds
4:00 PM 46.4 °F 41.1 °F 39.2 °F 76% 29.42 in 6.2 mi NW 11.5 mph - N/A Rain Light Rain
4:30 PM 46.4 °F 40.7 °F 41.0 °F 81% 29.42 in 5.6 mi NW 12.7 mph - N/A Rain Light Rain
5:00 PM 44.6 °F 37.8 °F 39.2 °F 81% 29.44 in 5.6 mi NNW 15.0 mph - N/A Rain Light Rain
5:30 PM 44.6 °F 38.4 °F 41.0 °F 87% 29.44 in 5.6 mi NW 12.7 mph - N/A   Scattered Clouds
6:00 PM 44.6 °F 39.2 °F 39.2 °F 81% 29.47 in 6.2 mi NNW 10.4 mph - N/A   Scattered Clouds
6:30 PM 46.4 °F 41.9 °F 39.2 °F 76% 29.47 in 6.2 mi NW 9.2 mph - N/A   Scattered Clouds
7:00 PM 44 °F - 37 °F 70% 29.52 in 5 mi WNW 8.1 mph - - Rain Light Rain
7:00 PM 46.4 °F 41.5 °F 41.0 °F 81% 29.50 in 5.6 mi NW 10.4 mph - N/A Rain Light Rain
7:30 PM 44.6 °F 39.2 °F 41.0 °F 87% 29.53 in 6.2 mi NW 10.4 mph - N/A   Light Drizzle
8:00 PM 44.6 °F 38.4 °F 41.0 °F 87% 29.53 in 3.7 mi NW 12.7 mph 24.2 mph N/A Rain Rain
8:30 PM 44.6 °F 38.4 °F 41.0 °F 87% 29.56 in 6.2 mi NW 12.7 mph - N/A Rain Light Rain
9:00 PM 44.6 °F - 41.0 °F 87% 29.56 in 6.2 mi Variable 2.3 mph - N/A   Mostly Cloudy
9:30 PM 44.6 °F - 41.0 °F 87% 29.59 in 6.2 mi Variable 1.2 mph - N/A   Mostly Cloudy
10:00 PM 44.6 °F - 41.0 °F 87% 29.59 in 6.2 mi Variable 2.3 mph - N/A Rain Light Rain
10:30 PM 44.6 °F 40.2 °F 41.0 °F 87% 29.62 in 6.2 mi NW 8.1 mph - N/A Rain Light Rain
11:00 PM 44.6 °F 39.7 °F 41.0 °F 87% 29.62 in 6.2 mi NW 9.2 mph - N/A   Mostly Cloudy
11:30 PM 44.6 °F 40.7 °F 39.2 °F 81% 29.62 in 6.2 mi WNW 6.9 mph - N/A   Mostly Cloudy